Regional Weather Roundup
Issued by NWS

Home | Current Version | Previous Version | Text Only | Print | Product List | Glossary On
Versions: 1 2 3 4 5 6 7 8 9 10 11 12 13 14 15 16 17 18 19 20 21 22 23 24 25 26 27
000
ASUS42 KTBW 251416
RWRFL
FLORIDA REGIONAL WEATHER ROUNDUP
NATIONAL WEATHER SERVICE TAMPA BAY RUSKIN FL
900 AM EST SAT FEB 25 2017

NOTE: "FAIR" INDICATES FEW OR NO CLOUDS BELOW 12,000 FEET WITH NO
SIGNIFICANT WEATHER AND/OR OBSTRUCTIONS TO VISIBILITY.

FLZ001>010-012>015-112-114-115-251500-
PANHANDLE FLORIDA

CITY           SKY/WX    TMP DP  RH WIND       PRES   REMARKS
PENSACOLA      MOSUNNY   67  46  47 N16       29.94R
PENSACOLA NAS  SUNNY     65  51  60 NW10      29.94R
CRESTVIEW      SUNNY     66  49  54 N12G23    29.95R
DUKE FIELD     FAIR      65  53  65 N15G23    29.93R
VALPARAISO     MOSUNNY   66  58  74 NW17G23   29.92R
MARY ESTHER    MOSUNNY   65  39  39 N15       29.92R
TRI COUNTY     FAIR      69  64  84 NW7       29.91R
PANAMA CITY    PTSUNNY   67  64  90 W8        29.90R
TYNDALL AFB    CLOUDY    68  65  88 NW12      29.91R
APALACHICOLA   CLOUDY    69  68  96 NW6       29.90R

STATION/POSITION SKY/WX   TEMP    WIND        PRES    WAVE   SWELL
                          AIR SEA DIR/SP/G            HT/PER HT/PER
                          (F)     (DEG/KT/KT) (MB)    (FT/S) (FT/S)
30.1N   87.6W              66 69  350/ 19/ 21 1013.9R   3/ 4
28.8N   86.0W              70 71              1013.6R   1/ 3
PANAMA CITY BEAC           67     310/ 12/ 15 1013.0R
TOWER C                    68     250/  8/  9 1013.5R
28.5N   84.5W              71 69  260/  6/  6 1013.3R   1

$$
FLZ011-016>038-118-127-128-134-139-239-251500-
NORTH FLORIDA

CITY           SKY/WX    TMP DP  RH WIND       PRES   REMARKS
MARIANNA       PTSUNNY   69  64  84 W10       29.89R
TALLAHASSEE    CLOUDY    66  65  96 W5        29.90R
PERRY          PTSUNNY   66  62  87 NW5       29.92S
CROSS CITY     MOSUNNY   68  64  88 SW3       29.92S
LAKE CITY      PTSUNNY   64  64 100 SW6       29.92R
GAINESVILLE    CLOUDY    65  64  97 S3        29.93R
WILLISTON      CLOUDY    66  66 100 CALM      29.94R
PALATKA        CLOUDY    64  64 100 W7        29.93R FOG
MAYPORT NAS    CLOUDY    66  64  93 SW7       29.90R
JACKSONVILLE   CLOUDY    64  64 100 W9        29.90R
JAX NAS        PTSUNNY   65  63  93 W10       29.92R
FERNANDINA BEA CLOUDY    64  64 100 SW6       29.88R
ST AUGUSTINE   CLOUDY    64  63  94 W9        29.92S FOG

STATION/POSITION SKY/WX   TEMP    WIND        PRES    WAVE   SWELL
                          AIR SEA DIR/SP/G            HT/PER HT/PER
                          (F)     (DEG/KT/KT) (MB)    (FT/S) (FT/S)
SHELL POINT      NOT AVBL
KEATON BEACH               67     260/  4/  4 1012.8R
CEDAR KEY                  67     260/  4/  6 1013.3R
FERNANDINA                 63 67  230/  5/  8 1013.0R
30.7N   81.3W                 65                N/A     4/11   2/11
MAYPORT                    64 66  250/  9/ 12 1012.8R
31.4N   80.9W              63 62  220/ 10/ 12 1010.9R   4/11   3/11
ST AUGUSTINE               63 67  260/  9/ 11 1013.8R

$$
FLZ040-043>046-052-053-057-058-063-144-251500-
INTERIOR CENTRAL FLORIDA

CITY           SKY/WX    TMP DP  RH WIND       PRES   REMARKS
OCALA          CLOUDY    64  61  88 W6        29.94R FOG
THE VILLAGES     N/A     66  66 100 E5G12     29.84R
LEESBURG       CLOUDY    65  64  97 W7        29.94R FOG
SANFORD        SUNNY     69  64  84 W8        29.92R
ORLANDO EXEC   SUNNY     70  65  84 SW8       29.92R
ORLANDO INTL   MOSUNNY   70  65  84 SW7       29.93R
KISSIMMEE      SUNNY     68  65  90 W6        29.94R
WINTER HAVEN   FOG       64  63  96 W5        29.95R VSB 3/4
LAKELAND       FOG       64  64 100 W5        29.94R VSB 1/2
BARTOW         FOG       63  63 100 W6        29.94R VSB 1/4
OKEECHOBEE     SUNNY     64  64 100 W3        29.94R

$$
FLZ041-047-054-059-064-141-147-251500-
EAST CENTRAL FLORIDA

CITY           SKY/WX    TMP DP  RH WIND       PRES   REMARKS
ORMOND BEACH   MOSUNNY   64  63  94 W7        29.92R FOG
DAYTONA BEACH  MOSUNNY   68  66  93 W9        29.92R
DELAND         PTSUNNY   66  64  94 W8        29.92R
NEW SMYRNA BEA SUNNY     68  66  94 SW8       29.92R
JFK SPACE CTR  SUNNY     67  67 100 W9        29.91R
CAPE CANAVERAL PTSUNNY   67  65  91 W7        29.91R
PATRICK AFB    SUNNY     68  68 100 W7        29.92R
MELBOURNE      SUNNY     67  67 100 SW6       29.92R
VERO BEACH     FOG       65  65 100 W5        29.93R VSB 1/2
FT PIERCE      FOG       66  66 100 W7        29.93R VSB 1/2
STUART         MOSUNNY   72  70  94 W5        29.93R FOG

STATION/POSITION SKY/WX   TEMP    WIND        PRES    WAVE   SWELL
                          AIR SEA DIR/SP/G            HT/PER HT/PER
                          (F)     (DEG/KT/KT) (MB)    (FT/S) (FT/S)
TRIDENT PIER               67 71  230/  4/  6 1014.1R
28.4N   80.5W                 71                N/A     3/11   2/11
27.5N   80.2W                 72                N/A     4/11   2/11

$$
FLZ050-056-061-142-242-148-248-149-249-151-251-155-255-
160-260-251500-
WEST CENTRAL FLORIDA

CITY           SKY/WX    TMP DP  RH WIND       PRES   REMARKS
CRYSTAL RIVER  CLOUDY    64  64 100 W3        29.94R FOG
INVERNESS      DRIZZLE   64  64 100 CALM      29.95R
BROOKSVILLE    CLOUDY    66  65  96 W7        29.95R FOG
CLEARWATER AIR CLOUDY    66  63  88 W10       29.95R
ST PETE CLEARW PTSUNNY   68  63  84 W7        29.95R
TAMPA INTL     CLOUDY    69  64  84 W12       29.95R
TAMPA EXEC     CLOUDY    70  64  83 CALM      29.95R
PLANT CITY     CLOUDY    68  68 100 W7        29.96R FOG
MACDILL AFB    CLOUDY    68  68 100 W7        29.95R
PETER O KNIGHT CLOUDY    70  68  94 W6        29.95R
ST PETERSBURG  CLOUDY    67  64  90 W12       29.93R
SARASOTA       PTSUNNY   68  65  90 W6        29.93R
VENICE         FAIR      70  68  94 VRB3      29.94R

STATION/POSITION SKY/WX   TEMP    WIND        PRES    WAVE   SWELL
                          AIR SEA DIR/SP/G            HT/PER HT/PER
                          (F)     (DEG/KT/KT) (MB)    (FT/S) (FT/S)
27.3N   84.2W                 71                N/A     1/ 6
CLEARWATER BEACH           66     290/  8/ 11 1014.4R
MIDDLE TAMPA BAY           66     290/  8/ 10 1014.1R
VENICE                     71 70  280/  3/  3 1013.2R

$$
FLZ066-069-070-075>078-162-262-165-265-251500-
SOUTHWEST FLORIDA AND KEYS

CITY           SKY/WX    TMP DP  RH WIND       PRES   REMARKS
PUNTA GORDA    PTSUNNY   68  65  90 SW3       29.94R
FT MYERS       MOSUNNY   72  67  84 CALM      29.92R
SOUTHWEST INTL CLOUDY    69  65  86 CALM      29.93R
NAPLES         SUNNY     73  67  81 CALM      29.92R
MARCO ISLAND   SUNNY     72  66  83 N5        29.93R
MARATHON       MOSUNNY   76  69  79 CALM      29.92R
KEY WEST NAS   MOSUNNY   72  63  73 CALM      29.93R
KEY WEST INTL  SUNNY     73  63  70 CALM      29.93R

STATION/POSITION SKY/WX   TEMP    WIND        PRES    WAVE   SWELL
                          AIR SEA DIR/SP/G            HT/PER HT/PER
                          (F)     (DEG/KT/KT) (MB)    (FT/S) (FT/S)
NAPLES                        72              1013.0R
26.0N   85.6W              74 75  310/  2/  2 1014.3R   1/ 4
DRY TORTUGAS               73     130/  2/  2 1013.6R
SAND KEY                   73     290/  2/  3 1014.0R
LONG KEY                   73 73     CALM     1013.1R

$$
FLZ067-068-071>074-168-172>174-251500-
SOUTHEAST FLORIDA

CITY           SKY/WX    TMP DP  RH WIND       PRES   REMARKS
W PALM BEACH   MOSUNNY   68  67  96 W3        29.92R
FT LAUDER-EXEC MOSUNNY   69  68  96 CALM      29.92R
FT LAUDERDALE  MOSUNNY   70  70 100 CALM      29.91S FOG
POMPANO BEACH  SUNNY     72  67  84 W6        29.92R
PEMBROKE PINES CLOUDY    68  68 100 CALM      29.93R FOG
OPA LOCKA      FOG       68  68 100 CALM      29.93R VSB 1/4
MIAMI          PTSUNNY   68  68 100 CALM      29.93R FOG
WEST KENDALL   CLOUDY    68  66  93 CALM      29.92R FOG
HOMESTEAD      PTSUNNY   68  68 100 CALM      29.92R

STATION/POSITION SKY/WX   TEMP    WIND        PRES    WAVE   SWELL
                          AIR SEA DIR/SP/G            HT/PER HT/PER
                          (F)     (DEG/KT/KT) (MB)    (FT/S) (FT/S)
PORT EVERGLADES            68     280/  5/  6 1012.7R
VIRGINIA KEY               67     240/  4/  5 1013.6R
LAKE WORTH                        260/  5/  6   N/A
FOWEY ROCKS                67 74  230/  5/  6 1013.4R
SETTLEMENT POINT           75     180/  7/  9 1013.3R

$$





USA.gov is the U.S. government's official web portal to all federal, state and local government web resources and services.